Location: Doverdale
(52.2833°N, 2.2000°W)
Time: 12:07:50
(UTC+00:00)

Cosmos 1980 Rocket - Pass Details

Date: 29 October 2020
Orbit: 831 x 848 km, 71.0° (Epoch: 24 November)

Event Time Altitude Azimuth Distance (km) Brightness Sun altitude
Rises 19:13:38 0° 196° (SSW) 3,378 5.4 -23.2°
Reaches altitude 10° 19:16:05 10° 193° (SSW) 2,445 4.6 -23.6°
Enters shadow 19:21:21 60° 127° (SE) 953 2.1 -24.4°
